Location: Burzi?i
(45.0869°N, 16.0577°E)
Time: 11:11:22
(UTC+00:00)

ADEOS Rocket - Pass Details

Date: 29 October 2020
Orbit: 859 x 1306 km, 98.7° (Epoch: 27 November)

Event Time Altitude Azimuth Distance (km) Brightness Sun altitude
Rises 16:42:50 0° 9° (N) 3,750 5.9 -10.3°
Reaches altitude 10° 16:45:18 10° 4° (N) 2,855 5.3 -10.7°
Maximum altitude 16:51:29 49° 292° (WNW) 1,425 4.3 -11.8°
Drops below altitude 10° 16:58:17 10° 220° (SW) 3,136 6.4 -13.0°
Sets 17:01:07 0° 216° (SW) 4,150 6.9 -13.5°
